BEIDOU-3 M12 (C26)

Last updated on Sat Aug 15 2026 00:03:26 GMT+0000 (Coordinated Universal Time)

1 43602U 18067A 26226.43740230 .00000012 00000+0 00000+0 0 9999 2 43602 54.1809 179.0657 0008346 32.5157 327.4922 1.86227443 54200
UTC large
Height (km)
Speed (km/s)
/
Latitude / Longitude
Inclination (degrees)
Orbital Period (minutes)
Azimuth
Elevation
Range (km)
Doppler Factor

Next 0 passes for location: London (51.5072 / 0.1276)

No passes found over London.
BEIDOU-3 M12 (C26)